KG4S Weather Reports


time (UTC)temp
C
wind
direction
speed
KPH
gust
KPH
rain 1hr
cm
rain 24hr
cm
rain mn
cm
humidity
%
barometer
mb
20260508214106 20 231 6.4 9.7 0.00 0.00 0.00 29 1012.2
20260508213606 20 223 4.8 8.0 0.00 0.00 0.00 29 1012.1
20260508213106 20 231 4.8 12.9 0.00 0.00 0.00 29 1012.1
20260508212606 20 211 6.4 12.9 0.00 0.00 0.00 29 1012.2
20260508212106 20 202 4.8 9.7 0.00 0.00 0.00 29 1012.2
20260508211606 20 230 1.6 8.0 0.00 0.00 0.00 31 1012.3
20260508211106 20 228 6.4 9.7 0.00 0.00 0.00 29 1012.5
20260508210525 20 224 4.8 9.7 0.00 0.00 0.00 29 1012.5
20260508210106 20 240 6.4 14.5 0.00 0.00 0.00 30 1012.7
20260508205606 20 246 1.6 8.0 0.00 0.00 0.00 31 1012.7
20260508205126 20 209 4.8 9.7 0.00 0.00 0.00 29 1012.7
20260508204606 20 189 3.2 6.4 0.00 0.00 0.00 31 1012.7
20260508204106 20 229 4.8 11.3 0.00 0.00 0.00 30 1012.7
20260508203606 20 226 4.8 16.1 0.00 0.00 0.00 30 1012.7
20260508203106 20 238 3.2 6.4 0.00 0.00 0.00 32 1012.6
20260508202606 20 205 4.8 8.0 0.00 0.00 0.00 31 1012.7
20260508202106 20 221 4.8 9.7 0.00 0.00 0.00 31 1012.9
20260508201606 19 218 3.2 9.7 0.00 0.00 0.00 31 1012.9
20260508201106 19 205 3.2 8.0 0.00 0.00 0.00 31 1012.8
20260508200606 20 200 4.8 9.7 0.00 0.00 0.00 32 1013.0
20260508200106 20 238 3.2 8.0 0.00 0.00 0.00 32 1013.1
20260508195646 20 188 3.2 6.4 0.00 0.00 0.00 32 1013.0
20260508195106 19 145 6.4 12.9 0.00 0.00 0.00 30 1013.1
20260508194606 19 198 4.8 8.0 0.00 0.00 0.00 33 1013.2
20260508194106 19 208 4.8 11.3 0.00 0.00 0.00 33 1013.2
20260508193626 20 226 3.2 6.4 0.00 0.00 0.00 33 1013.3
20260508193126 19 187 1.6 9.7 0.00 0.00 0.00 32 1013.2
20260508192606 19 212 3.2 11.3 0.00 0.00 0.00 33 1013.4
20260508192106 19 213 4.8 11.3 0.00 0.00 0.00 32 1013.4
20260508191606 19 248 4.8 12.9 0.00 0.00 0.00 34 1013.6
20260508191106 19 245 3.2 9.7 0.00 0.00 0.00 34 1013.6
20260508190606 19 215 1.6 8.0 0.00 0.00 0.00 33 1013.8
20260508190126 18 183 3.2 8.0 0.00 0.00 0.00 33 1013.9
20260508185606 18 180 4.8 11.3 0.00 0.00 0.00 34 1014.0
20260508185126 18 216 3.2 8.0 0.00 0.00 0.00 34 1014.0
20260508184606 18 171 4.8 11.3 0.00 0.00 0.00 34 1014.1
20260508184126 18 139 3.2 9.7 0.00 0.00 0.00 34 1014.3
20260508183606 18 142 1.6 8.0 0.00 0.00 0.00 34 1014.3
20260508183106 18 162 3.2 8.0 0.00 0.00 0.00 34 1014.4
20260508182626 18 140 4.8 8.0 0.00 0.00 0.00 33 1014.6
20260508182106 18 130 3.2 8.0 0.00 0.00 0.00 34 1014.8
20260508181626 18 160 1.6 4.8 0.00 0.00 0.00 37 1014.9
20260508181106 18 208 1.6 6.4 0.00 0.00 0.00 35 1014.9
20260508180606 18 184 4.8 9.7 0.00 0.00 0.00 33 1015.0
20260508180106 18 224 3.2 8.0 0.00 0.00 0.00 37 1015.0
20260508175606 17 216 4.8 8.0 0.00 0.00 0.00 36 1015.2
20260508175106 18 199 3.2 11.3 0.00 0.00 0.00 37 1015.4
20260508174606 18 210 3.2 6.4 0.00 0.00 0.00 38 1015.4
20260508174106 17 232 4.8 8.0 0.00 0.00 0.00 38 1015.6
20260508173606 17 228 4.8 9.7 0.00 0.00 0.00 38 1015.7
20260508173106 17 231 4.8 9.7 0.00 0.00 0.00 36 1015.7
20260508172606 17 173 3.2 6.4 0.00 0.00 0.00 38 1015.9
20260508172106 17 234 1.6 6.4 0.00 0.00 0.00 38 1016.0
20260508171626 17 223 3.2 9.7 0.00 0.00 0.00 39 1016.2
20260508171106 17 230 4.8 11.3 0.00 0.00 0.00 39 1016.1
20260508170606 17 179 3.2 4.8 0.00 0.00 0.00 39 1016.2
20260508170106 17 188 1.6 6.4 0.00 0.00 0.00 41 1016.3
20260508165607 17 242 1.6 6.4 0.00 0.00 0.00 42 1016.3
20260508165126 17 129 3.2 6.4 0.00 0.00 0.00 42 1016.5
20260508164606 16 162 1.6 6.4 0.00 0.00 0.00 44 1016.6
20260508164106 16 215 4.8 8.0 0.00 0.00 0.00 42 1016.6
20260508163606 16 162 3.2 6.4 0.00 0.00 0.00 43 1016.8
20260508163106 16 204 4.8 8.0 0.00 0.00 0.00 42 1016.9
20260508162606 16 174 3.2 6.4 0.00 0.00 0.00 43 1016.8
20260508162146 16 178 4.8 8.0 0.00 0.00 0.00 42 1017.0
20260508161626 16 165 3.2 6.4 0.00 0.00 0.00 44 1017.1
20260508161106 16 204 3.2 8.0 0.00 0.00 0.00 45 1017.0
20260508160606 16 193 4.8 8.0 0.00 0.00 0.00 45 1017.1
20260508160126 16 198 3.2 8.0 0.00 0.00 0.00 44 1017.1
20260508155606 16 189 3.2 6.4 0.00 0.00 0.00 44 1017.2
20260508155106 15 235 6.4 9.7 0.00 0.00 0.00 43 1017.3
20260508154606 16 229 4.8 9.7 0.00 0.00 0.00 45 1017.4
20260508154106 15 223 3.2 8.0 0.00 0.00 0.00 46 1017.4
20260508153606 15 202 3.2 8.0 0.00 0.00 0.00 44 1017.4
20260508153126 15 222 6.4 9.7 0.00 0.00 0.00 45 1017.6
20260508152606 15 231 4.8 9.7 0.00 0.00 0.00 46 1017.6
20260508152106 15 215 3.2 9.7 0.00 0.00 0.00 46 1017.7
20260508151606 15 229 3.2 9.7 0.00 0.00 0.00 47 1017.6
20260508151106 15 236 3.2 8.0 0.00 0.00 0.00 47 1017.7
20260508150606 14 176 3.2 9.7 0.00 0.00 0.00 44 1017.7
20260508150106 15 224 4.8 8.0 0.00 0.00 0.00 45 1017.8
20260508145606 14 227 3.2 8.0 0.00 0.00 0.00 45 1017.7
20260508145146 14 213 4.8 8.0 0.00 0.00 0.00 43 1017.7
20260508144606 14 232 4.8 9.7 0.00 0.00 0.00 43 1017.7
20260508144106 13 207 3.2 8.0 0.00 0.00 0.00 43 1017.8
20260508143606 13 218 4.8 9.7 0.00 0.00 0.00 46 1017.7
20260508143106 13 202 1.6 6.4 0.00 0.00 0.00 49 1017.8
20260508142626 13 217 3.2 6.4 0.00 0.00 0.00 50 1017.7
20260508142106 13 215 3.2 6.4 0.00 0.00 0.00 52 1017.8
20260508141606 13 193 3.2 4.8 0.00 0.00 0.00 54 1017.8
20260508141106 13 142 3.2 4.8 0.00 0.00 0.00 57 1017.8
20260508140606 12 183 1.6 4.8 0.00 0.00 0.00 58 1017.7
20260508140106 12 235 4.8 8.0 0.00 0.00 0.00 56 1017.7
20260508135606 12 213 3.2 6.4 0.00 0.00 0.00 57 1017.7
20260508135106 12 244 3.2 6.4 0.00 0.00 0.00 58 1017.6
20260508134626 12 216 1.6 6.4 0.00 0.00 0.00 61 1017.7
20260508134106 11 212 3.2 4.8 0.00 0.00 0.00 62 1017.6
20260508133606 11 244 1.6 8.0 0.00 0.00 0.00 63 1017.7
20260508133106 11 260 3.2 6.4 0.00 0.00 0.00 64 1017.7
20260508132606 10 254 3.2 8.0 0.00 0.00 0.00 65 1017.6
20260508132106 10 228 3.2 6.4 0.00 0.00 0.00 69 1017.6
20260508131606 10 193 3.2 4.8 0.00 0.00 0.00 68 1017.6
20260508131106 10 228 3.2 4.8 0.00 0.00 0.00 71 1017.6
20260508130606 9 208 3.2 6.4 0.00 0.00 0.00 71 1017.6
20260508130107 9 209 1.6 6.4 0.00 0.00 0.00 72 1017.6
20260508125627 8 210 0.0 4.8 0.00 0.00 0.00 73 1017.5
20260508125107 8 0.0 1.6 0.00 0.00 0.00 76 1017.3
20260508124607 8 0.0 3.2 0.00 0.00 0.00 74 1017.4
20260508124107 7 305 0.0 3.2 0.00 0.00 0.00 76 1017.4
20260508123607 7 300 1.6 3.2 0.00 0.00 0.00 79 1017.5
20260508123107 7 327 3.2 4.8 0.00 0.00 0.00 80 1017.4
20260508122607 7 304 3.2 4.8 0.00 0.00 0.00 80 1017.3
20260508122107 6 182 0.0 3.2 0.00 0.00 0.00 79 1017.3
20260508121607 6 130 0.0 3.2 0.00 0.00 0.00 81 1017.3
20260508121107 6 0.0 3.2 0.00 0.00 0.00 84 1017.3
20260508120607 5 205 1.6 4.8 0.00 0.00 0.00 87 1017.3
20260508120106 5 192 1.6 4.8 0.00 0.00 0.00 90 1017.2
20260508115606 4 172 1.6 4.8 0.00 0.00 0.00 93 1017.2
20260508115107 3 0.0 3.2 0.00 0.00 0.00 95 1017.2
20260508114607 3 0.0 3.2 0.00 0.00 0.00 95 1017.2
20260508114106 3 124 0.0 1.6 0.00 0.00 0.00 95 1017.1
20260508113607 3 0.0 1.6 0.00 0.00 0.00 95 1016.9
20260508113147 3 195 0.0 1.6 0.00 0.00 0.00 95 1016.9
20260508112606 2 48 0.0 3.2 0.00 0.00 0.00 95 1016.8
20260508112127 2 95 1.6 3.2 0.00 0.00 0.00 95 1016.8
20260508111607 2 123 1.6 4.8 0.00 0.00 0.00 95 1016.8
20260508111107 2 153 3.2 4.8 0.00 0.00 0.00 95 1016.8
20260508110647 2 156 1.6 4.8 0.00 0.00 0.00 95 1016.7
20260508110107 2 97 1.6 3.2 0.00 0.00 0.00 95 1016.6
20260508105606 2 140 1.6 3.2 0.00 0.00 0.00 95 1016.6
20260508105107 2 0.0 3.2 0.00 0.00 0.00 95 1016.6
20260508104607 2 120 0.0 3.2 0.00 0.00 0.00 95 1016.6
20260508104107 2 17 1.6 4.8 0.00 0.00 0.00 95 1016.6
20260508103607 2 110 1.6 4.8 0.00 0.00 0.00 95 1016.5
20260508103126 2 0.0 4.8 0.00 0.00 0.00 95 1016.6
20260508102607 2 79 1.6 3.2 0.00 0.00 0.00 95 1016.6
20260508101607 2 93 1.6 3.2 0.00 0.00 0.00 95 1016.5
20260508101106 2 103 1.6 4.8 0.00 0.00 0.00 95 1016.5
20260508100606 2 158 1.6 4.8 0.00 0.00 0.00 95 1016.5
20260508100106 2 139 1.6 3.2 0.00 0.00 0.00 95 1016.6
20260508095606 2 147 0.0 3.2 0.00 0.00 0.00 95 1016.5
20260508095106 2 358 1.6 4.8 0.00 0.00 0.00 95 1016.5
20260508094626 2 99 1.6 4.8 0.00 0.00 0.00 95 1016.6
20260508094106 2 165 1.6 4.8 0.00 0.00 0.00 95 1016.7
20260508093626 2 95 1.6 4.8 0.00 0.00 0.00 95 1016.6
20260508093126 2 322 1.6 4.8 0.00 0.00 0.00 95 1016.6
20260508092606 2 350 1.6 4.8 0.00 0.00 0.00 95 1016.6
20260508092106 2 318 1.6 3.2 0.00 0.00 0.00 95 1016.7
20260508091606 3 107 1.6 3.2 0.00 0.00 0.00 95 1016.6
20260508091106 2 73 0.0 3.2 0.00 0.00 0.00 95 1016.6
20260508090606 2 0.0 1.6 0.00 0.00 0.00 95 1016.6
20260508090127 2 0.0 1.6 0.00 0.00 0.00 95 1016.7
20260508085606 2 0.0 1.6 0.00 0.00 0.00 95 1016.7
20260508085106 2 140 0.0 1.6 0.00 0.00 0.00 95 1016.7
20260508084606 2 0.0 0.0 0.00 0.00 0.00 95 1016.6
20260508084126 2 0.0 0.0 0.00 0.00 0.00 95 1016.7
20260508083606 2 0.0 0.0 0.00 0.00 0.00 95 1016.7
20260508083107 2 0.0 0.0 0.00 0.00 0.00 95 1016.7
20260508082606 2 0.0 0.0 0.00 0.00 0.00 95 1016.6
20260508082106 2 0.0 0.0 0.00 0.00 0.00 95 1016.7
20260508081606 2 0.0 0.0 0.00 0.00 0.00 95 1016.7
20260508081126 2 0.0 0.0 0.00 0.00 0.00 95 1016.6
20260508080626 2 0.0 0.0 0.00 0.00 0.00 95 1016.6
20260508080127 2 0.0 0.0 0.00 0.00 0.00 95 1016.7
20260508075627 2 0.0 0.0 0.00 0.00 0.00 95 1016.6
20260508075107 2 0.0 0.0 0.00 0.00 0.00 95 1016.7
20260508074607 2 0.0 0.0 0.00 0.00 0.00 95 1016.7
20260508074107 2 0.0 1.6 0.00 0.00 0.00 95 1016.6
20260508073627 2 0.0 1.6 0.00 0.00 0.00 95 1016.6
20260508073107 3 0.0 1.6 0.00 0.00 0.00 95 1016.5
20260508072627 3 0.0 1.6 0.00 0.00 0.00 95 1016.5
20260508072107 3 0.0 0.0 0.00 0.00 0.00 95 1016.5
20260508071627 3 0.0 0.0 0.00 0.00 0.00 95 1016.6
20260508071107 3 0.0 0.0 0.00 0.00 0.00 95 1016.6
20260508070607 3 0.0 0.0 0.00 0.00 0.00 95 1016.4
20260508070107 3 0.0 0.0 0.00 0.00 0.00 95 1016.5
20260508065627 3 0.0 0.0 0.00 0.00 0.00 95 1016.5
20260508065107 3 0.0 0.0 0.00 0.00 0.00 95 1016.5
20260508064627 3 0.0 0.0 0.00 0.00 0.00 95 1016.6
20260508064107 3 0.0 1.6 0.00 0.00 0.00 95 1016.5
20260508063627 3 0.0 0.0 0.00 0.00 0.00 95 1016.5
20260508063107 3 0.0 0.0 0.00 0.00 0.00 95 1016.4
20260508062627 3 0.0 0.0 0.00 0.00 0.00 95 1016.4
20260508062107 3 0.0 0.0 0.00 0.00 0.00 95 1016.5
20260508061607 3 0.0 0.0 0.00 0.00 0.00 95 1016.6
20260508061107 3 0.0 0.0 0.00 0.00 0.00 95 1016.6
20260508060607 3 0.0 0.0 0.00 0.00 0.00 95 1016.7
20260508060107 3 0.0 0.0 0.00 0.00 0.00 95 1016.7
20260508055607 3 0.0 0.0 0.00 0.00 0.00 95 1016.6
20260508055107 3 0.0 0.0 0.00 0.00 0.00 95 1016.7
20260508054607 3 0.0 0.0 0.00 0.00 0.00 95 1016.8
20260508054107 4 0.0 0.0 0.00 0.00 0.00 95 1016.8
20260508053607 4 0.0 0.0 0.00 0.00 0.00 95 1016.8
20260508053107 4 0.0 0.0 0.00 0.00 0.00 95 1016.8
20260508052627 4 0.0 0.0 0.00 0.00 0.00 95 1016.8
20260508052107 4 0.0 0.0 0.00 0.00 0.00 95 1017.0
20260508051607 4 0.0 0.0 0.00 0.00 0.00 95 1016.9
20260508051107 4 0.0 0.0 0.00 0.00 0.00 95 1017.0
20260508050607 4 0.0 0.0 0.00 0.00 0.00 95 1016.9
20260508050107 4 0.0 0.0 0.00 0.00 0.00 95 1016.9
20260508045627 4 0.0 0.0 0.00 0.00 0.00 95 1016.8
20260508045107 4 0.0 0.0 0.00 0.00 0.00 95 1016.7
20260508044607 4 0.0 0.0 0.00 0.00 0.00 95 1016.7
20260508044107 4 0.0 0.0 0.00 0.00 0.00 95 1016.8
20260508043607 4 0.0 0.0 0.00 0.00 0.00 94 1016.7
20260508043107 5 0.0 0.0 0.00 0.00 0.00 94 1016.7
20260508042607 5 0.0 0.0 0.00 0.00 0.00 94 1016.7
20260508042107 5 0.0 0.0 0.00 0.00 0.00 94 1016.6
20260508041647 5 0.0 0.0 0.00 0.00 0.00 94 1016.6
20260508041107 5 0.0 0.0 0.00 0.00 0.00 94 1016.6
20260508040607 5 0.0 0.0 0.00 0.00 0.00 94 1016.6
20260508040107 5 0.0 0.0 0.00 0.00 0.00 93 1016.6
20260508035607 5 0.0 0.0 0.00 0.00 0.00 93 1016.6
20260508035107 5 0.0 0.0 0.00 0.00 0.00 93 1016.7
20260508034647 5 0.0 0.0 0.00 0.00 0.00 93 1016.8
20260508034107 5 0.0 0.0 0.00 0.00 0.00 92 1016.8
20260508033607 5 0.0 0.0 0.00 0.00 0.00 92 1016.8
20260508033107 6 0.0 0.0 0.00 0.00 0.00 92 1016.8
20260508032607 6 0.0 0.0 0.00 0.00 0.00 92 1016.7
20260508032107 6 0.0 0.0 0.00 0.00 0.00 91 1016.8
20260508031607 6 0.0 0.0 0.00 0.00 0.00 91 1016.6
20260508031127 6 0.0 0.0 0.00 0.00 0.00 90 1016.6
20260508030607 6 0.0 0.0 0.00 0.00 0.00 90 1016.6
20260508030127 6 0.0 0.0 0.00 0.00 0.00 89 1016.7
20260508025607 6 0.0 0.0 0.00 0.00 0.00 87 1016.6
20260508025107 6 0.0 0.0 0.00 0.00 0.00 87 1016.6
20260508024607 6 0.0 0.0 0.00 0.00 0.00 87 1016.7
20260508024107 6 0.0 0.0 0.00 0.00 0.00 86 1016.7
20260508023627 7 0.0 0.0 0.00 0.00 0.00 86 1016.6
20260508023107 7 0.0 0.0 0.00 0.00 0.00 84 1016.6
20260508022607 7 0.0 0.0 0.00 0.00 0.00 82 1016.5
20260508022107 7 0.0 0.0 0.00 0.00 0.00 78 1016.4
20260508021607 7 0.0 0.0 0.00 0.00 0.00 77 1016.3
20260508021107 7 0.0 0.0 0.00 0.00 0.00 74 1016.4
20260508020607 7 0.0 0.0 0.00 0.00 0.00 72 1016.2
20260508020106 8 0.0 0.0 0.00 0.00 0.00 70 1016.0
20260508015606 8 0.0 0.0 0.00 0.00 0.00 71 1016.0
20260508015106 8 0.0 0.0 0.00 0.00 0.00 72 1015.9
20260508014606 8 0.0 0.0 0.00 0.00 0.00 70 1015.8
20260508014106 9 0.0 0.0 0.00 0.00 0.00 60 1015.8
20260508013626 9 0.0 0.0 0.00 0.00 0.00 54 1015.8
20260508013106 9 0.0 0.0 0.00 0.00 0.00 52 1015.8
20260508012606 10 0.0 0.0 0.00 0.00 0.00 51 1015.6
20260508012106 10 0.0 0.0 0.00 0.00 0.00 48 1015.6
20260508011606 10 0.0 0.0 0.00 0.00 0.00 48 1015.5
20260508011106 10 0.0 0.0 0.00 0.00 0.00 47 1015.4
20260508010606 11 0.0 0.0 0.00 0.00 0.00 46 1015.3
20260508010107 11 0.0 0.0 0.00 0.00 0.00 45 1015.3
20260508005627 11 0.0 0.0 0.00 0.00 0.00 45 1015.3
20260508005107 11 0.0 0.0 0.00 0.00 0.00 44 1015.2
20260508004607 11 0.0 0.0 0.00 0.00 0.00 43 1015.3
20260508004107 12 0.0 0.0 0.00 0.00 0.00 42 1015.2
20260508003607 12 0.0 0.0 0.00 0.00 0.00 41 1015.1
20260508003107 12 0.0 0.0 0.00 0.00 0.00 41 1015.0
20260508002607 12 0.0 0.0 0.00 0.00 0.00 39 1015.0
20260508002107 13 0.0 0.0 0.00 0.00 0.00 39 1014.9
20260508001627 13 0.0 0.0 0.00 0.00 0.00 38 1014.9
20260508001107 13 0.0 0.0 0.00 0.00 0.00 38 1014.9
20260508000607 13 0.0 3.2 0.00 0.00 0.00 36 1014.9
20260508000107 14 50 0.0 3.2 0.00 0.00 0.00 35 1015.0
20260507235607 15 70 1.6 3.2 0.00 0.00 0.00 35 1014.9
20260507235107 15 274 0.0 3.2 0.00 0.00 0.00 33 1014.9
20260507234607 15 348 0.0 3.2 0.00 0.00 0.00 33 1014.8
20260507234107 15 180 0.0 3.2 0.00 0.00 0.00 32 1014.7
20260507233607 15 213 0.0 4.8 0.00 0.00 0.00 31 1014.8
20260507233127 15 287 1.6 3.2 0.00 0.00 0.00 31 1014.8
20260507232612 15 279 1.6 4.8 0.00 0.00 0.00 30 1014.8
20260507232107 15 292 1.6 4.8 0.00 0.00 0.00 30 1014.9
20260507231607 15 264 0.0 6.4 0.00 0.00 0.00 30 1014.8
20260507231107 15 265 1.6 6.4 0.00 0.00 0.00 31 1014.8
20260507230627 15 282 3.2 6.4 0.00 0.00 0.00 32 1014.6
20260507230107 15 9 1.6 4.8 0.00 0.00 0.00 30 1014.7
20260507225607 16 286 1.6 6.4 0.00 0.00 0.00 31 1014.7
20260507225107 16 358 1.6 4.8 0.00 0.00 0.00 30 1014.6
20260507224607 15 11 0.0 4.8 0.00 0.00 0.00 30 1014.5
20260507224107 16 296 3.2 6.4 0.00 0.00 0.00 30 1014.7
20260507223607 16 256 1.6 8.0 0.00 0.00 0.00 30 1014.7
20260507223107 16 239 1.6 4.8 0.00 0.00 0.00 31 1014.8
20260507222607 16 277 3.2 6.4 0.00 0.00 0.00 31 1014.8
20260507222107 15 341 3.2 6.4 0.00 0.00 0.00 29 1014.8
20260507221607 16 12 3.2 9.7 0.00 0.00 0.00 29 1014.9
20260507221107 16 228 1.6 6.4 0.00 0.00 0.00 31 1014.8
20260507220607 16 233 4.8 8.0 0.00 0.00 0.00 29 1014.8
20260507220107 16 333 4.8 8.0 0.00 0.00 0.00 29 1014.7
20260507215607 16 272 3.2 8.0 0.00 0.00 0.00 29 1014.8
20260507215107 16 328 3.2 8.0 0.00 0.00 0.00 29 1014.7
20260507214607 16 59 1.6 6.4 0.00 0.00 0.00 29 1014.6